Regional Weather Roundup
Issued by NWS

Home | Current Version | Previous Version | Graphics & Text | Print | Product List | Glossary On
Versions: 1 2 3 4 5 6 7 8 9 10 11 12 13 14 15 16 17 18 19 20 21 22 23 24 25 26 27 28 29 30 31 32 33 34 35 36 37 38 39 40 41 42 43 44 45 46 47 48 49 50
000
ASUS43 KBIS 160802
RWRND

NORTH DAKOTA REGIONAL WEATHER ROUNDUP
NATIONAL WEATHER SERVICE BISMARCK ND
300 AM CDT WED AUG 16 2017

NOTE: "FAIR" INDICATES FEW OR NO CLOUDS BELOW 12,000 FEET WITH NO
SIGNIFICANT WEATHER AND/OR OBSTRUCTIONS TO VISIBILITY.


NDZ001>003-009>011-017-160900-
NORTHWEST NORTH DAKOTA

CITY           SKY/WX    TMP DP  RH WIND       PRES   REMARKS
WILLISTON      CLEAR     58  55  90 CALM      29.92R
MINOT          FOG       61  60  97 SW6       29.89R VSB 1/4
MINOT AFB      FOG       57  56  99 CALM      29.88S VSB 1/8
$$

NDZ018>021-031>035-040>046-160900-
SOUTHWEST NORTH DAKOTA

CITY           SKY/WX    TMP DP  RH WIND       PRES   REMARKS
BISMARCK       CLOUDY    63  61  93 NW6       29.87R
DICKINSON      FOG       60  60 100 NW8       29.91F VSB 1/4
GARRISON         N/A     58  58 100 NW5       29.89S
HETTINGER ARPT FOG       59  58  96 W3        29.94S VSB 1/2
$$

NDZ004>008-012>016-024-026-027-054-160900-
NORTHEAST NORTH DAKOTA

CITY           SKY/WX    TMP DP  RH WIND       PRES   REMARKS
GRAND FORKS    CLOUDY    66  64  93 E6        29.87F
GRND FRKS AFB  CLOUDY    64  62  94 E6        29.87F
DEVILS LAKE    LGT RAIN  61  59  93 E13       29.86S
$$

NDZ022-023-025-028>030-036>039-047>053-160900-
SOUTHEAST NORTH DAKOTA

CITY           SKY/WX    TMP DP  RH WIND       PRES   REMARKS
FARGO          CLOUDY    67  60  78 SE12      29.86F
JAMESTOWN      LGT RAIN  64  62  93 SE9       29.83R FOG
$$




USA.gov is the U.S. government's official web portal to all federal, state and local government web resources and services.